Soldotna, AK

5:57 PM AKDT on September 23, 2017 (GMT -0800)
Soldotna

Weather History for PASX - November, 2013

Change the Weather History Date:

Monday, November 11, 2013

  Actual Average Record
Temperature  
Mean Temperature 28 °F -  
Max Temperature 32 °F 30 °F 46 °F (2014)
Min Temperature 17 °F 17 °F -12 °F (1969)
Degree Days  
Heating Degree Days 37    
Moisture  
Dew Point 22 °F    
Average Humidity 81    
Maximum Humidity 93    
Minimum Humidity 59    
Precipitation  
Precipitation 0.01 in - - ()
Sea Level Pressure  
Sea Level Pressure 30.00 in    
Wind  
Wind Speed 1 mph (East)    
Max Wind Speed 7 mph    
Max Gust Speed -    
Visibility 7 miles    
Events      
Averages and records for this station are not official NWS values.
T = Trace of Precipitation, MM = Missing Value Source: NWS Daily Summary

Daily Weather History Graph

Daily Weather History Graph

Search for Another Location

Airport or City:

Trip Planner

Search our weather history database for the weather conditions in past years. The results will help you decide how hot, cold, wet, or windy it might be!

Date:

Astronomy

Nov. 11, 2013 Rise Set
Actual Time 8:56 AM AKST 4:39 PM AKST
Civil Twilight 8:07 AM AKST 5:28 PM AKST
Nautical Twilight 7:15 AM AKST 6:20 PM AKST
Astronomical Twilight 6:25 AM AKST 7:09 PM AKST
Moon 2:49 PM AKST (11/11) 1:19 AM AKST (11/11)
Length of Visible Light 9h 21m
Length of Day
7h 43m
Waxing Gibbous, 68% of the Moon is Illuminated
Nov 11
Waxing Gibbous
Nov 17
Full
Nov 25
Last Quarter
Dec 2
New
Dec 9
First Quarter

Hourly Weather History & Observations

Time (AKST) Temp. Windchill Dew Point Humidity Pressure Visibility Wind Dir Wind Speed Gust Speed Precip Events Conditions
12:16 AM 32.0 °F 25.6 °F 28.4 °F 87% 29.84 in 10.0 mi ESE 6.9 mph - N/A   Overcast
12:36 AM 32.0 °F 28.7 °F 28.4 °F 87% 29.85 in 10.0 mi East 3.5 mph - N/A   Mostly Cloudy
12:56 AM 32.0 °F 28.7 °F 30.2 °F 93% 29.86 in 10.0 mi North 3.5 mph - N/A   Overcast
1:16 AM 32.0 °F - 28.4 °F 87% 29.87 in 10.0 mi Calm Calm - N/A   Overcast
1:36 AM 30.2 °F - 28.4 °F 93% 29.87 in 10.0 mi Calm Calm - N/A   Scattered Clouds
1:56 AM 30.2 °F - 28.4 °F 93% 29.87 in 0.5 mi Calm Calm - N/A   Unknown
2:16 AM 28.4 °F - 26.6 °F 93% 29.88 in 0.2 mi Calm Calm - N/A   Overcast
2:36 AM 28.4 °F - 26.6 °F 93% 29.89 in 2.5 mi Calm Calm - N/A   Scattered Clouds
2:56 AM 28.4 °F - 24.8 °F 86% 29.90 in 0.8 mi Calm Calm - N/A   Unknown
3:16 AM 28.4 °F - 26.6 °F 93% 29.90 in 0.5 mi Calm Calm - N/A   Overcast
3:36 AM 28.4 °F - 26.6 °F 93% 29.91 in 0.2 mi Calm Calm - N/A   Overcast
3:56 AM 28.4 °F - 24.8 °F 86% 29.91 in 0.2 mi Calm Calm - N/A   Overcast
4:16 AM 26.6 °F - 24.8 °F 93% 29.91 in 0.2 mi Calm Calm - N/A   Overcast
4:36 AM 28.4 °F - 24.8 °F 86% 29.91 in 0.5 mi Calm Calm - N/A   Overcast
4:56 AM 26.6 °F - 24.8 °F 93% 29.92 in 0.2 mi Calm Calm - N/A   Overcast
5:16 AM 26.6 °F - 24.8 °F 93% 29.92 in 0.8 mi Calm Calm - N/A   Overcast
5:36 AM 28.4 °F - 26.6 °F 93% 29.93 in 3.0 mi Calm Calm - N/A   Overcast
5:56 AM 28.4 °F - 26.6 °F 93% 29.93 in 10.0 mi Calm Calm - N/A   Overcast
6:16 AM 28.4 °F - 26.6 °F 93% 29.94 in 10.0 mi Calm Calm - N/A   Overcast
6:36 AM 28.4 °F - 24.8 °F 86% 29.94 in 2.0 mi Calm Calm - N/A   Overcast
6:56 AM 26.6 °F - 24.8 °F 93% 29.95 in 0.8 mi Calm Calm - N/A   Overcast
7:16 AM 26.6 °F - 23.0 °F 86% 29.96 in 1.0 mi Calm Calm - N/A   Overcast
7:36 AM 24.8 °F - 21.2 °F 86% 29.97 in 0.5 mi Calm Calm - N/A   Overcast
7:56 AM 26.6 °F - 24.8 °F 93% 29.97 in 2.0 mi Calm Calm - N/A   Overcast
8:16 AM 26.6 °F - 24.8 °F 93% 29.98 in 9.0 mi Calm Calm - N/A   Overcast
8:36 AM 24.8 °F - 21.2 °F 86% 29.98 in 0.2 mi Calm Calm - N/A   Overcast
8:56 AM 24.8 °F - 21.2 °F 86% 29.99 in 0.2 mi Calm Calm - N/A   Overcast
9:16 AM 24.8 °F - 21.2 °F 86% 30.00 in 0.2 mi Calm Calm - N/A   Mostly Cloudy
9:36 AM 24.8 °F - 21.2 °F 86% 30.00 in 5.0 mi Calm Calm - N/A   Partly Cloudy
9:56 AM 26.6 °F - 24.8 °F 93% 30.00 in 10.0 mi Calm Calm - N/A   Partly Cloudy
10:16 AM 26.6 °F - 23.0 °F 86% 30.01 in 10.0 mi Calm Calm - N/A   Clear
10:36 AM 26.6 °F - 23.0 °F 86% 30.01 in 10.0 mi Calm Calm - N/A   Clear
10:56 AM 26.6 °F - 21.2 °F 80% 30.01 in 10.0 mi Calm Calm - N/A   Clear
11:16 AM 26.6 °F - 21.2 °F 80% 30.02 in 10.0 mi Calm Calm - N/A   Clear
11:36 AM 26.6 °F - 21.2 °F 80% 30.03 in 10.0 mi Calm Calm - N/A   Clear
11:56 AM 26.6 °F - 21.2 °F 80% 30.03 in 10.0 mi Calm Calm - N/A   Clear
12:16 PM 24.8 °F - 21.2 °F 86% 30.02 in 4.0 mi Calm Calm - N/A   Clear
12:36 PM 26.6 °F - 23.0 °F 86% 30.02 in 10.0 mi Calm Calm - N/A   Clear
12:56 PM 26.6 °F - 21.2 °F 80% 30.03 in 10.0 mi Calm Calm - N/A   Clear
1:16 PM 26.6 °F - 23.0 °F 86% 30.03 in 10.0 mi Calm Calm - N/A   Clear
1:36 PM 26.6 °F - 23.0 °F 86% 30.03 in 10.0 mi Calm Calm - N/A   Clear
1:56 PM 28.4 °F - 23.0 °F 80% 30.03 in 10.0 mi Calm Calm - N/A   Clear
2:16 PM 28.4 °F - 24.8 °F 86% 30.03 in 10.0 mi Calm Calm - N/A   Clear
2:36 PM 28.4 °F - 24.8 °F 86% 30.03 in 10.0 mi Calm Calm - N/A   Clear
2:56 PM 26.6 °F - 21.2 °F 80% 30.03 in 10.0 mi Calm Calm - N/A   Clear
3:16 PM 26.6 °F - 23.0 °F 86% 30.03 in 3.0 mi Calm Calm - N/A   Clear
3:36 PM 28.4 °F - 23.0 °F 80% 30.04 in 10.0 mi Calm Calm - N/A   Clear
3:56 PM 28.4 °F - 21.2 °F 74% 30.03 in 10.0 mi Calm Calm - N/A   Clear
4:16 PM 28.4 °F - 21.2 °F 74% 30.04 in 10.0 mi Calm Calm - N/A   Clear
4:36 PM 28.4 °F - 21.2 °F 74% 30.04 in 10.0 mi Calm Calm - N/A   Clear
4:56 PM 28.4 °F - 19.4 °F 69% 30.05 in 10.0 mi Calm Calm - N/A   Clear
5:16 PM 28.4 °F - 19.4 °F 69% 30.06 in 10.0 mi Calm Calm - N/A   Clear
5:36 PM 26.6 °F - 19.4 °F 74% 30.06 in 10.0 mi Calm Calm - N/A   Clear
5:56 PM 26.6 °F - 19.4 °F 74% 30.06 in 10.0 mi Calm Calm - N/A   Clear
6:16 PM 26.6 °F - 17.6 °F 69% 30.06 in 10.0 mi Calm Calm - N/A   Clear
6:36 PM 26.6 °F - 17.6 °F 69% 30.06 in 10.0 mi Calm Calm - N/A   Clear
6:56 PM 26.6 °F - 17.6 °F 69% 30.07 in 10.0 mi Calm Calm - N/A   Clear
7:16 PM 26.6 °F - 17.6 °F 69% 30.07 in 10.0 mi Calm Calm - N/A   Clear
7:36 PM 26.6 °F - 15.8 °F 64% 30.07 in 10.0 mi Calm Calm - N/A   Clear
7:56 PM 26.6 °F - 17.6 °F 69% 30.07 in 10.0 mi Calm Calm - N/A   Clear
8:16 PM 26.6 °F - 15.8 °F 64% 30.07 in 10.0 mi Calm Calm - N/A   Clear
8:36 PM 26.6 °F - 14.0 °F 59% 30.07 in 10.0 mi Calm Calm - N/A   Clear
8:56 PM 26.6 °F - 15.8 °F 64% 30.08 in 10.0 mi Calm Calm - N/A   Clear
9:16 PM 26.6 °F - 15.8 °F 64% 30.08 in 10.0 mi Calm Calm - N/A   Clear
9:36 PM 26.6 °F - 15.8 °F 64% 30.08 in 10.0 mi Calm Calm - N/A   Clear
9:56 PM 26.6 °F - 14.0 °F 59% 30.08 in 10.0 mi Calm Calm - N/A   Clear
10:16 PM 26.6 °F - 15.8 °F 64% 30.09 in 10.0 mi Calm Calm - N/A   Clear
10:36 PM 26.6 °F - 15.8 °F 64% 30.09 in 10.0 mi Calm Calm - N/A   Clear
10:56 PM 24.8 °F - 14.0 °F 64% 30.08 in 10.0 mi Calm Calm - N/A   Clear
11:16 PM 24.8 °F - 15.8 °F 69% 30.09 in 10.0 mi Calm Calm - N/A   Clear
11:36 PM 24.8 °F - 14.0 °F 64% 30.09 in 10.0 mi Calm Calm - N/A   Clear
11:56 PM 17.6 °F - 10.4 °F 73% 30.09 in 10.0 mi Calm Calm - N/A   Clear